Wetbulb
56.02 55.42 54.83 54.80 54.91 54.50 55.09 55.49 55.04 54.60 55.09 55.78 56.43 57.22 57.69 58.07 57.87 53.23 48.73 52.02 55.13 59.43 59.63 54.60 50.47 48.10 48.45 45.78 46.11 43.87 36.56 32.71 33.61 35.12 35.48 37.90 37.18 40.87 43.71 39.99 41.71 46.04 44.10 45.03 49.29
56.53 56.02 55.79 54.78 54.87 54.90 54.72 54.88 55.13 54.41 54.67 55.37 56.05 56.94 57.53 57.76 53.36 49.63 53.40 56.90 58.13 58.77 53.86 48.20 45.28 47.28 43.65 44.04 43.47 40.44 35.25 34.31 36.53 35.82 36.70 38.93 38.76 40.58 38.98 40.05 40.91 42.62 45.03 46.37 48.87
57.59 56.63 56.06 55.58 54.88 54.71 54.69 54.47 54.88 54.42 54.32 54.98 55.70 56.58 57.33 56.65 49.53 47.58 55.32 56.88 57.37 56.80 53.10 49.91 47.22 46.51 42.23 43.10 41.11 38.98 36.18 38.48 39.19 41.60 41.09 40.41 39.25 41.40 38.65 37.89 39.51 38.83 40.83 44.04 47.04
58.37 57.85 56.67 55.97 55.57 54.99 54.75 54.41 54.84 54.49 54.14 54.74 55.46 56.33 57.33 53.06 41.21 49.41 56.82 58.38 57.72 53.69 50.96 47.29 46.11 42.11 40.03 38.44 41.49 37.27 41.20 41.42 41.70 42.40 42.10 39.74 41.26 39.04 39.99 39.50 43.88 41.58 41.29 45.16 45.21
58.25 57.90 57.21 56.82 55.61 54.91 54.80 54.80 54.75 54.50 54.12 54.47 55.28 56.53 52.77 46.11 45.96 51.63 57.01 56.61 51.99 50.54 47.60 45.64 43.13 42.53 38.97 39.45 40.80 37.76 39.52 42.51 42.19 42.53 41.61 42.69 38.94 39.31 39.63 41.84 43.94 43.10 45.25 43.90 44.84
58.09 57.70 57.34 56.74 56.21 54.80 54.62 54.73 54.78 54.52 54.13 54.35 55.27 56.57 49.30 41.82 50.31 52.96 51.91 52.33 50.98 48.80 46.31 46.12 44.44 44.98 41.79 40.46 39.26 40.14 41.05 40.98 42.05 42.07 42.05 39.62 38.90 40.29 40.30 43.25 42.96 42.34 42.22 43.04 44.75
58.32 57.70 57.16 56.85 56.62 55.19 54.60 54.60 54.88 54.64 54.16 54.22 55.22 52.65 46.14 44.38 50.19 50.95 52.58 50.49 50.66 49.83 45.93 47.31 46.83 44.85 42.84 39.47 43.03 41.47 37.33 38.54 40.06 41.45 40.56 40.66 36.73 37.66 41.34 43.54 42.28 41.29 41.88 42.56 44.27
58.34 57.65 57.35 56.57 55.81 55.53 54.82 54.58 54.83 54.80 54.33 54.26 54.71 49.10 41.14 49.85 48.13 50.80 52.05 50.58 51.22 51.01 49.38 49.26 49.36 45.84 43.04 42.79 41.74 37.70 36.39 30.20 38.26 40.42 40.62 37.74 30.41 39.08 42.09 42.01 40.53 40.30 40.50 40.98 42.42
58.01 57.48 57.33 56.81 56.20 55.51 54.70 54.57 54.84 55.06 54.19 53.91 47.16 44.98 40.18 51.29 47.65 50.06 50.49 49.44 49.02 48.69 48.89 51.21 47.90 42.05 41.57 36.11 31.75 32.69 27.98 30.55 34.95 40.67 39.66 36.79 31.09 39.64 42.38 42.31 40.83 39.16 39.22 39.61 40.31
57.13 57.52 57.28 56.96 56.31 55.40 54.70 54.82 54.63 53.89 51.17 50.23 45.99 39.43 43.08 42.97 47.45 49.28 50.07 50.92 48.15 45.57 45.05 44.37 41.68 36.98 36.16 33.64 24.77 28.89 28.21 31.74 30.40 36.67 37.12 34.74 34.39 38.87 41.21 41.36 40.66 39.55 38.55 38.59 38.61
56.35 57.30 57.34 56.92 56.15 54.93 51.72 47.60 43.69 42.08 43.39 38.16 40.18 41.12 43.79 46.50 48.52 47.49 49.76 48.38 47.60 44.03 37.29 39.56 35.14 30.69 34.30 36.49 33.85 33.95 31.06 28.77 32.33 37.70 33.89 32.86 34.43 37.24 40.50 39.78 39.55 39.84 37.15 37.19 37.49
55.51 56.01 57.52 57.06 56.59 54.35 50.06 42.88 43.01 43.51 35.84 43.24 42.70 43.01 45.37 46.47 42.66 45.96 48.97 43.31 42.46 37.01 38.31 33.85 29.75 36.70 38.92 37.88 35.81 30.61 29.80 28.35 32.79 36.49 32.97 28.32 30.77 35.52 38.56 39.05 39.89 40.14 35.97 36.70 36.06
54.70 55.13 56.94 57.13 55.71 50.75 46.49 43.57 46.77 45.86 37.03 40.60 42.54 42.04 42.51 44.97 42.10 42.34 46.18 43.75 39.91 37.71 36.02 31.60 34.84 39.06 37.85 34.99 34.96 32.13 30.57 30.70 29.01 33.31 33.30 30.75 27.48 32.57 36.94 39.32 41.09 40.63 38.97 37.26 36.37
53.44 54.10 54.88 56.62 50.18 48.91 45.92 48.81 46.37 46.35 32.79 35.83 37.04 40.81 43.66 44.26 39.47 46.13 46.89 43.27 40.16 37.22 36.90 34.61 37.23 36.91 34.57 34.26 34.76 30.97 34.63 34.74 33.45 29.02 23.18 30.12 19.51 27.17 33.51 35.46 39.05 40.46 38.57 35.59 35.61
52.50 53.31 54.18 54.94 48.76 45.80 46.38 47.91 46.78 47.19 27.92 36.93 36.44 43.33 42.81 39.95 39.88 40.96 44.96 42.64 37.71 37.32 35.68 32.17 33.67 33.56 33.89 34.31 35.75 33.47 35.77 34.55 33.29 29.30 27.22 26.17 23.07 25.60 32.69 32.18 34.96 37.73 38.39 34.30 34.95
51.83 52.65 53.05 49.60 47.45 45.75 46.55 45.60 46.58 32.94 25.04 30.94 35.57 35.71 36.23 37.58 38.78 41.09 41.54 42.83 41.81 37.92 36.85 34.76 38.09 35.61 34.14 35.68 35.98 37.62 34.83 33.78 31.64 28.47 19.42 25.48 24.41 25.37 29.45 32.84 32.87 36.57 36.89 34.29 34.35
51.03 52.31 51.49 49.14 44.58 46.29 47.15 42.77 29.88 26.07 35.11 27.57 29.49 34.96 34.93 33.45 36.23 38.12 36.60 34.71 32.03 26.11 27.35 32.46 33.28 34.67 36.69 33.03 36.14 34.66 30.56 23.35 20.41 18.41 19.73 25.97 24.37 27.94 33.37 33.95 35.39 36.89 34.13 33.13 33.66
49.90 51.33 50.27 50.07 47.07 47.39 44.24 34.38 23.95 26.69 31.12 34.93 34.62 34.55 30.99 34.94 34.11 35.85 34.21 31.19 35.45 33.86 27.08 26.40 25.41 32.19 35.20 32.96 30.02 31.39 30.58 24.44 19.65 22.17 23.46 24.63 23.05 29.18 33.29 35.62 36.94 36.85 34.29 33.31 32.85
48.79 46.36 45.48 47.85 47.01 46.74 38.28 28.19 29.72 28.60 35.03 32.66 33.84 30.11 29.71 32.42 33.67 34.37 32.56 30.83 34.74 36.08 32.88 28.27 26.81 33.62 34.47 34.96 33.78 31.13 28.08 31.48 25.58 17.16 20.55 23.77 27.58 32.31 32.58 33.39 33.95 33.52 33.54 32.31 32.18
43.50 42.75 42.98 46.77 47.40 43.88 35.46 34.07 32.27 36.12 36.87 35.48 30.78 32.23 24.91 26.99 30.43 31.76 32.16 35.26 35.41 38.02 39.06 35.38 26.05 30.98 32.72 34.25 33.63 31.11 32.91 26.22 24.93 15.89 16.79 22.75 25.06 27.47 28.50 32.21 32.86 32.28 32.55 32.24 32.71
41.56 35.76 42.44 46.91 47.63 39.73 32.42 32.88 34.35 37.88 38.16 34.78 33.24 31.02 30.95 27.91 28.96 30.05 32.32 35.44 38.09 37.75 39.30 36.51 30.60 27.28 30.96 28.62 28.17 28.57 27.00 28.19 28.76 26.98 24.11 22.39 25.07 30.84 32.07 33.38 34.65 34.24 34.34 33.74 33.13
38.89 30.23 43.49 46.24 34.69 32.85 33.43 34.27 36.91 36.36 37.11 35.05 36.19 35.31 32.66 30.65 29.03 29.46 30.79 34.52 36.15 39.25 34.52 35.76 29.30 23.90 26.55 31.03 32.82 30.79 29.81 29.72 24.99 24.77 23.80 25.72 25.80 33.49 32.50 34.43 35.99 36.86 36.72 35.40 34.92
32.21 32.25 42.28 43.24 30.21 30.99 33.47 33.32 34.72 33.30 33.17 32.85 32.49 36.76 36.52 31.67 30.39 30.89 31.77 35.31 36.19 36.98 35.72 36.31 28.58 19.83 21.42 26.30 29.04 28.13 30.26 30.74 30.37 27.47 24.42 23.11 27.10 33.80 32.37 32.35 34.62 35.94 37.93 36.75 35.06
31.67 26.81 31.47 34.16 33.53 33.38 33.19 33.10 32.37 34.59 35.11 35.86 34.88 35.18 33.20 31.28 32.29 30.67 31.38 33.85 35.07 35.89 38.97 38.50 30.69 28.12 24.87 27.59 27.92 25.13 27.72 30.22 29.52 23.70 25.32 25.48 28.30 30.96 31.80 33.35 33.67 35.12 37.86 35.71 35.69
31.52 29.90 31.54 27.64 29.78 31.46 34.34 32.26 31.58 29.02 32.77 35.82 31.59 33.89 32.80 28.48 29.59 27.01 29.86 31.12 34.16 36.38 34.55 34.43 25.01 27.10 27.03 26.86 27.35 26.66 27.13 29.60 28.90 31.80 29.23 30.10 29.97 34.07 33.75 33.26 34.38 35.38 36.55 35.02 35.09
30.56 29.56 31.62 31.18 31.91 31.13 32.25 32.50 31.98 29.93 29.87 31.08 32.53 33.73 35.86 30.81 32.38 28.15 30.09 30.57 32.29 33.47 32.88 32.13 25.22 22.82 21.15 25.26 26.30 26.73 27.48 28.95 31.12 32.27 29.53 28.79 29.98 35.26 34.95 32.90 32.57 35.75 37.83 37.70 36.87
35.11 35.72 31.57 28.32 30.60 29.15 29.88 32.58 33.21 34.99 31.89 36.58 35.71 33.83 32.97 36.17 35.39 35.47 36.20 35.94 35.06 32.38 30.79 29.46 25.28 23.42 17.96 18.80 22.09 24.13 24.52 27.72 29.28 33.36 33.65 29.70 36.20 34.28 34.81 33.82 34.93 36.15 38.63 39.61 39.42
MSLP
1018.80 1018.76 1018.84 1018.91 1019.05 1019.07 1018.80 1018.52 1018.31 1018.04 1017.73 1017.36 1016.97 1016.58 1016.19 1015.73 1014.95 1014.72 1014.88 1015.03 1014.76 1014.43 1014.36 1013.95 1013.38 1012.97 1012.98 1013.48 1013.70 1013.98 1015.12 1015.86 1015.76 1016.02 1016.60 1016.57 1016.85 1017.19 1017.30 1017.44 1017.42 1017.58 1017.95 1018.32 1017.97
1018.76 1018.60 1018.60 1018.62 1018.75 1018.83 1018.75 1018.51 1018.24 1017.99 1017.67 1017.32 1016.93 1016.50 1016.10 1015.75 1015.38 1014.92 1015.04 1014.72 1014.56 1014.43 1014.42 1014.05 1013.58 1013.25 1013.54 1013.76 1014.23 1014.76 1015.69 1016.15 1016.30 1016.18 1016.54 1016.76 1017.02 1017.30 1017.48 1017.66 1017.85 1017.91 1018.21 1018.12 1018.02
1018.65 1018.59 1018.40 1018.41 1018.54 1018.61 1018.61 1018.50 1018.17 1017.96 1017.62 1017.29 1016.90 1016.47 1016.06 1015.75 1015.53 1014.98 1014.71 1014.55 1014.42 1014.34 1014.28 1013.89 1013.56 1013.50 1013.85 1014.17 1014.80 1015.25 1016.06 1016.32 1016.77 1016.57 1016.55 1016.95 1017.28 1017.24 1017.49 1017.88 1018.09 1018.26 1018.33 1018.36 1018.48
1018.42 1018.52 1018.36 1018.21 1018.36 1018.40 1018.41 1018.30 1018.12 1017.86 1017.58 1017.26 1016.84 1016.43 1015.91 1015.74 1015.56 1014.66 1014.42 1014.30 1014.18 1014.08 1014.05 1013.67 1013.53 1013.72 1014.26 1014.82 1015.00 1015.82 1016.47 1016.60 1017.09 1017.08 1017.03 1017.40 1017.48 1017.52 1017.62 1017.78 1017.95 1018.05 1018.20 1018.48 1018.82
1018.20 1018.33 1018.30 1018.11 1018.14 1018.18 1018.26 1018.20 1018.04 1017.76 1017.48 1017.15 1016.82 1016.39 1015.92 1015.70 1014.83 1014.33 1014.18 1014.03 1013.98 1013.93 1013.82 1013.76 1013.73 1013.77 1014.55 1015.07 1015.45 1016.28 1016.94 1017.25 1017.54 1017.46 1017.63 1017.69 1017.74 1017.75 1017.63 1017.88 1017.87 1017.91 1018.23 1018.60 1018.70
1017.83 1018.04 1018.19 1017.95 1018.10 1017.92 1018.07 1018.08 1017.94 1017.66 1017.35 1017.08 1016.74 1016.41 1016.28 1015.74 1014.42 1014.25 1014.11 1013.99 1013.88 1013.89 1013.69 1013.76 1013.76 1013.88 1014.91 1015.64 1015.99 1016.56 1017.22 1017.66 1017.79 1017.77 1017.80 1018.01 1017.98 1017.92 1017.47 1017.65 1017.82 1018.08 1018.24 1018.52 1018.52
1017.30 1017.55 1017.89 1017.96 1018.04 1017.82 1017.69 1017.84 1017.80 1017.51 1017.18 1016.98 1016.76 1016.64 1016.10 1014.88 1014.36 1014.26 1014.01 1014.05 1013.90 1013.80 1013.76 1013.89 1013.80 1014.17 1015.16 1016.06 1016.44 1017.13 1017.88 1017.99 1017.94 1017.94 1018.10 1018.23 1018.32 1017.59 1017.58 1017.58 1018.01 1018.15 1018.19 1018.57 1018.28
1016.99 1017.18 1017.28 1017.55 1017.65 1017.86 1017.41 1017.50 1017.51 1017.28 1016.94 1016.68 1016.66 1016.64 1015.66 1014.53 1014.47 1014.31 1014.13 1014.02 1013.85 1013.72 1013.83 1013.89 1013.84 1014.78 1015.68 1016.33 1016.95 1017.55 1018.12 1018.38 1017.99 1018.13 1018.37 1018.67 1018.15 1017.39 1017.41 1017.74 1018.20 1018.10 1018.23 1018.33 1018.22
1016.87 1016.71 1017.00 1017.26 1017.28 1017.53 1017.18 1017.24 1017.18 1016.94 1016.54 1016.41 1016.54 1016.43 1015.34 1014.60 1014.59 1014.33 1014.29 1014.25 1014.17 1014.24 1014.15 1014.07 1014.33 1015.70 1016.51 1017.10 1017.87 1018.29 1018.56 1018.49 1018.20 1018.08 1018.56 1019.03 1018.50 1017.86 1017.51 1017.67 1018.21 1018.12 1018.22 1018.20 1018.16
1016.70 1016.48 1016.55 1016.71 1017.00 1017.18 1017.14 1017.05 1016.75 1016.72 1015.93 1016.24 1016.13 1016.33 1015.25 1014.73 1014.58 1014.36 1014.31 1014.30 1014.35 1014.58 1014.84 1014.80 1015.36 1016.23 1017.01 1017.54 1018.19 1018.30 1018.56 1018.37 1018.27 1018.35 1018.74 1019.04 1018.70 1018.06 1017.71 1017.67 1017.92 1017.93 1018.12 1017.99 1018.06
1016.60 1016.17 1016.35 1016.37 1016.70 1017.10 1017.35 1016.88 1016.85 1016.87 1016.00 1015.54 1015.57 1015.18 1014.92 1015.01 1014.77 1014.64 1014.41 1014.42 1014.44 1014.81 1015.22 1015.21 1016.14 1016.38 1016.69 1017.00 1017.27 1017.62 1017.90 1018.21 1018.36 1018.51 1018.90 1019.00 1018.69 1017.96 1017.32 1017.57 1017.76 1017.73 1018.08 1018.09 1018.21
1016.44 1016.28 1016.13 1016.16 1016.38 1016.91 1017.30 1017.32 1016.81 1017.05 1015.97 1014.88 1014.92 1014.96 1014.70 1014.66 1014.93 1014.81 1014.62 1014.76 1014.69 1014.95 1015.23 1015.96 1016.22 1016.07 1016.09 1016.69 1017.17 1017.71 1017.87 1018.25 1018.52 1018.67 1019.15 1019.08 1018.28 1017.13 1016.83 1016.98 1017.16 1017.30 1017.95 1017.92 1018.16
1016.18 1016.18 1015.73 1015.88 1016.28 1016.99 1017.07 1016.83 1016.36 1016.76 1016.50 1014.75 1014.38 1014.26 1014.28 1014.71 1014.56 1014.48 1014.70 1014.56 1014.52 1014.99 1015.32 1015.92 1016.15 1016.18 1016.33 1016.69 1017.11 1017.42 1017.70 1018.09 1018.38 1018.68 1018.99 1019.10 1017.74 1016.53 1016.14 1016.21 1016.57 1016.88 1017.40 1017.81 1018.17
1015.98 1016.02 1015.91 1015.59 1016.86 1016.75 1017.00 1016.55 1016.51 1016.74 1016.84 1014.70 1014.12 1013.52 1013.74 1014.20 1014.53 1014.16 1014.33 1014.37 1014.41 1014.66 1015.40 1016.04 1016.20 1016.44 1016.56 1016.70 1016.77 1017.19 1017.19 1017.55 1018.12 1018.70 1019.28 1019.11 1018.65 1016.76 1016.23 1016.33 1016.60 1016.82 1017.41 1017.78 1018.17
1015.67 1015.68 1015.82 1014.85 1015.42 1016.36 1016.09 1016.07 1016.31 1016.65 1016.11 1014.10 1014.14 1013.85 1013.74 1014.15 1014.29 1014.55 1014.37 1014.34 1014.49 1014.68 1015.23 1016.18 1016.44 1016.66 1016.88 1016.79 1016.62 1016.94 1017.20 1017.56 1018.05 1018.75 1019.08 1019.12 1019.42 1016.25 1016.25 1016.48 1016.29 1016.55 1017.25 1017.67 1018.20
1015.36 1015.44 1015.48 1015.53 1015.58 1016.00 1016.39 1015.92 1016.48 1017.36 1015.22 1014.31 1014.38 1014.12 1014.39 1014.39 1014.42 1014.68 1014.59 1014.47 1014.51 1015.08 1015.81 1016.68 1016.65 1016.69 1016.88 1017.20 1017.12 1017.19 1017.63 1018.04 1018.43 1019.18 1019.53 1018.65 1018.66 1016.21 1015.59 1014.60 1015.08 1016.06 1016.83 1017.60 1018.34
1014.95 1014.94 1015.43 1015.52 1014.88 1015.63 1016.04 1016.80 1017.76 1016.88 1014.56 1014.56 1014.44 1014.27 1014.31 1014.78 1014.88 1014.56 1014.69 1014.71 1014.52 1015.75 1016.44 1017.05 1017.09 1017.07 1017.05 1017.61 1017.74 1017.67 1018.09 1019.07 1019.71 1020.04 1019.37 1018.48 1018.32 1014.80 1013.61 1013.43 1013.61 1014.92 1016.34 1017.52 1018.22
1014.59 1014.57 1014.53 1014.72 1014.89 1015.32 1015.24 1017.81 1017.56 1015.06 1014.47 1013.85 1014.25 1014.43 1014.84 1014.81 1014.96 1014.91 1014.86 1014.97 1014.50 1014.63 1016.02 1016.52 1017.51 1017.01 1016.96 1017.08 1017.16 1017.78 1017.79 1017.98 1018.74 1019.77 1019.13 1018.37 1016.92 1013.61 1013.00 1012.92 1013.47 1014.54 1015.85 1017.23 1018.08
1014.12 1014.23 1013.85 1013.82 1014.57 1013.78 1015.49 1016.36 1014.98 1014.25 1013.42 1013.54 1014.52 1014.73 1015.13 1014.91 1014.83 1014.99 1015.09 1014.59 1013.73 1013.76 1013.99 1015.27 1016.42 1016.92 1017.01 1017.01 1017.11 1017.58 1017.64 1017.10 1018.03 1019.63 1018.95 1016.85 1015.11 1013.30 1013.29 1013.64 1014.22 1015.14 1016.11 1017.05 1017.95
1013.91 1013.88 1012.92 1013.36 1013.85 1013.48 1014.81 1013.90 1013.78 1013.08 1012.71 1012.57 1013.48 1014.11 1014.83 1015.06 1015.01 1015.02 1014.80 1013.24 1012.84 1012.62 1012.75 1013.69 1015.98 1017.35 1017.50 1017.28 1017.34 1017.04 1017.19 1017.38 1017.78 1018.75 1018.16 1016.18 1014.72 1013.07 1013.46 1013.86 1014.39 1015.17 1015.76 1016.66 1017.46
1013.79 1013.84 1012.49 1012.37 1013.48 1013.08 1012.86 1012.44 1012.53 1011.95 1011.87 1012.03 1012.33 1013.78 1014.15 1015.01 1014.86 1014.70 1013.92 1012.86 1012.19 1011.93 1012.57 1013.34 1014.70 1017.91 1017.81 1017.26 1016.77 1017.33 1017.01 1016.92 1016.68 1016.65 1016.41 1015.85 1013.20 1011.31 1011.72 1012.53 1013.32 1014.03 1015.04 1015.86 1016.71
1013.13 1013.35 1012.64 1012.54 1012.08 1011.70 1011.05 1010.37 1010.85 1011.45 1011.84 1011.53 1011.45 1012.50 1013.16 1014.41 1014.49 1014.59 1013.81 1012.89 1012.26 1011.66 1012.50 1013.37 1014.84 1016.92 1016.92 1016.76 1016.51 1016.36 1016.09 1016.03 1015.87 1016.17 1015.73 1014.86 1012.10 1010.40 1010.72 1011.10 1012.28 1013.26 1014.03 1014.91 1015.80
1012.58 1012.87 1012.61 1012.08 1010.99 1010.80 1010.66 1010.33 1010.57 1011.00 1010.96 1011.36 1011.67 1011.61 1012.28 1013.63 1014.51 1014.14 1013.60 1012.94 1012.66 1012.26 1012.54 1013.58 1014.76 1016.66 1017.37 1017.44 1016.96 1016.42 1015.57 1015.26 1015.05 1014.94 1014.55 1013.82 1011.48 1010.11 1010.22 1010.92 1011.70 1012.61 1013.36 1014.02 1014.95
1012.25 1012.72 1012.57 1011.66 1010.25 1009.67 1009.75 1009.57 1010.26 1010.22 1010.19 1010.77 1011.18 1011.52 1012.55 1013.33 1013.69 1013.78 1013.70 1013.54 1013.23 1013.37 1013.36 1013.25 1014.01 1014.39 1014.67 1014.48 1014.47 1015.43 1014.48 1014.55 1014.48 1014.60 1013.32 1012.04 1010.73 1009.99 1010.17 1010.74 1011.48 1012.04 1012.58 1013.43 1014.19
1011.49 1011.10 1011.12 1010.76 1010.00 1009.61 1009.32 1008.78 1009.73 1009.91 1009.72 1009.80 1010.86 1010.37 1010.97 1012.43 1013.27 1013.38 1013.43 1013.97 1014.20 1014.06 1013.81 1013.74 1014.65 1015.00 1014.87 1014.56 1014.25 1013.71 1013.47 1013.59 1013.52 1012.20 1011.88 1010.23 1010.14 1008.91 1008.98 1009.56 1010.32 1011.15 1012.12 1013.04 1013.71
1010.72 1010.62 1010.98 1010.70 1009.83 1009.46 1008.77 1007.93 1008.11 1008.60 1008.59 1008.72 1008.52 1009.17 1009.88 1010.32 1010.54 1011.82 1012.46 1013.41 1014.06 1014.86 1014.71 1014.97 1015.54 1015.76 1015.72 1015.15 1014.63 1013.82 1012.96 1012.85 1012.30 1011.38 1010.80 1009.79 1008.94 1007.82 1007.64 1008.73 1009.80 1010.41 1011.30 1012.00 1012.60
1010.40 1010.46 1010.90 1010.29 1009.63 1009.27 1008.08 1007.43 1006.42 1006.78 1007.62 1006.93 1007.36 1009.32 1010.00 1009.60 1010.48 1011.14 1011.52 1012.34 1013.16 1014.11 1015.37 1015.60 1015.84 1016.47 1016.37 1015.71 1014.87 1013.26 1010.86 1011.14 1010.58 1009.61 1008.96 1008.75 1006.86 1007.39 1007.52 1007.93 1008.29 1009.05 1009.79 1010.21 1010.80
Wind_Speed
6 6 7 9 11 12 13 14 15 15 16 16 16 15 15 17 15 1 1 2 5 10 8 6 4 3 1 2 3 3 5 1 1 4 5 3 4 0 4 1 2 5 3 1 5
8 6 7 7 9 11 13 13 14 15 16 16 17 16 15 15 3 3 1 4 6 6 2 2 2 1 3 2 3 5 4 1 3 2 5 5 4 6 1 1 0 2 4 7 7
9 7 6 7 8 9 11 13 13 14 15 16 16 17 16 11 3 1 3 5 5 4 4 3 4 2 3 3 4 3 2 4 4 4 3 4 2 2 2 1 2 1 5 7 5
8 9 8 6 8 9 11 12 13 13 14 15 16 17 18 3 2 1 5 5 4 4 3 2 2 1 4 3 1 6 5 5 1 4 4 3 2 1 4 3 6 4 1 3 6
8 9 8 7 7 8 10 11 12 13 13 14 15 15 7 1 5 1 5 3 3 2 1 1 1 1 4 4 4 4 3 6 4 4 4 2 2 3 3 5 5 4 4 4 4
11 8 9 7 8 7 8 11 12 12 13 13 13 15 1 3 2 1 3 3 3 2 1 1 1 4 6 3 4 4 6 5 3 2 2 1 3 1 2 6 3 3 2 2 2
13 10 10 7 8 8 7 11 13 13 12 12 11 4 3 8 1 3 1 2 2 2 2 3 1 5 4 4 4 7 5 1 3 2 0 3 4 7 5 5 2 4 3 4 2
12 12 11 9 8 10 9 11 14 14 13 10 7 2 6 0 2 2 3 0 5 5 4 3 7 7 5 4 4 2 3 1 2 4 1 3 7 3 9 7 3 5 4 3 3
13 13 13 12 9 9 8 14 15 16 12 8 1 2 7 0 1 2 2 3 4 3 3 3 5 4 3 6 5 3 2 3 2 7 3 3 5 4 7 8 6 6 5 4 4
14 14 13 12 9 6 8 15 13 12 3 2 3 3 2 2 2 2 2 1 2 4 3 2 4 4 2 4 6 6 4 3 4 3 2 3 10 10 8 7 9 7 6 5 4
13 11 13 12 9 4 4 5 1 1 0 7 3 2 3 1 1 2 1 1 2 1 4 2 4 6 10 7 3 5 4 4 2 1 2 6 11 12 7 6 8 8 7 6 4
12 15 14 13 12 9 4 3 4 4 6 7 5 3 1 3 1 4 2 5 5 5 5 5 4 3 4 9 5 4 3 2 3 3 2 2 14 14 9 8 9 9 7 7 3
10 14 13 12 12 5 3 4 2 1 5 5 5 5 6 6 5 8 9 5 4 5 6 6 2 3 3 4 5 3 4 4 4 1 3 5 10 5 1 6 7 6 7 5 6
11 11 21 14 7 4 3 4 3 3 3 6 6 5 5 6 5 1 6 4 4 9 7 2 4 4 3 4 5 5 3 4 4 3 2 2 7 5 4 5 7 7 7 7 6
11 10 17 19 8 5 3 10 4 6 4 1 4 2 3 6 6 1 0 1 6 4 7 5 7 5 3 3 2 4 2 4 2 2 3 2 3 9 3 6 10 9 9 9 7
10 10 12 2 3 2 1 7 4 2 8 2 2 4 6 2 2 4 3 1 1 4 6 3 1 1 3 2 2 7 4 4 4 3 3 5 5 7 6 8 6 6 9 9 8
14 10 4 2 6 7 8 3 5 6 4 5 5 5 5 5 3 5 7 7 8 7 3 2 1 1 3 6 6 0 5 3 5 4 7 4 1 11 7 7 9 15 11 9 8
14 12 5 4 7 12 6 3 6 5 7 4 3 7 4 5 4 5 7 7 7 2 5 8 4 9 5 5 7 6 5 7 8 5 4 3 8 9 4 3 6 10 11 9 9
13 4 4 5 13 13 10 5 9 7 7 9 4 4 3 4 5 5 7 6 8 10 6 6 1 3 4 3 3 6 6 3 7 4 4 5 8 7 2 4 7 10 10 10 9
1 4 9 15 18 15 7 24 9 9 6 5 8 6 9 7 6 7 9 7 6 12 2 7 6 3 1 1 0 3 1 3 3 4 4 5 5 8 7 9 8 10 13 10 9
3 4 1 19 13 11 14 8 6 7 4 7 5 6 6 7 6 6 5 5 7 12 10 3 6 2 2 8 9 3 3 3 3 5 6 2 9 7 9 14 17 15 12 13 12
3 5 3 12 11 3 15 15 7 9 4 4 5 5 8 8 7 5 8 5 6 8 9 2 6 5 8 3 3 3 6 6 6 6 3 3 9 3 4 12 15 14 14 12 12
4 3 2 10 15 9 5 5 8 9 9 8 7 6 4 8 3 8 6 1 6 5 15 6 2 4 7 6 3 7 7 5 3 3 7 8 8 2 3 7 9 14 13 14 14
3 4 3 5 3 20 15 11 11 0 9 7 6 5 6 4 4 5 5 3 5 4 1 5 4 6 9 6 7 8 9 11 6 4 5 8 4 5 5 7 8 9 11 12 15
4 4 3 7 13 7 16 12 13 9 4 10 2 15 14 7 9 7 4 3 4 5 3 5 5 2 3 1 4 5 7 17 15 16 10 6 10 8 12 14 12 9 8 12 14
4 3 1 2 2 7 8 20 27 9 15 16 15 17 16 11 11 11 9 5 6 1 2 3 3 2 4 4 2 5 7 13 22 21 9 5 9 7 4 6 9 12 14 15 15
1 1 3 4 2 5 8 8 27 23 5 19 22 13 16 14 8 3 3 8 10 11 6 5 6 3 6 2 2 12 16 17 12 17 24 18 19 5 7 10 15 16 18 19 19
Wind_Direction
291 304 320 329 330 332 336 339 345 344 343 342 341 342 340 338 323 53 127 284 308 322 326 289 302 264 57 64 10 56 61 209 11 130 150 161 119 332 171 134 203 175 97 292 314
274 288 299 315 323 327 329 332 340 340 340 340 338 336 335 338 304 287 228 314 307 310 300 318 225 236 26 45 11 75 94 106 322 48 145 155 82 166 122 222 230 73 356 352 0
263 269 281 296 311 320 323 323 331 335 336 335 335 333 328 326 335 194 293 310 298 276 249 276 283 211 74 45 9 31 118 138 355 46 79 98 88 115 45 99 178 36 338 338 6
252 253 262 276 302 311 322 319 322 327 331 332 332 330 322 270 235 226 303 298 284 269 262 268 17 21 115 114 80 95 28 98 114 18 53 81 313 329 180 215 151 108 338 28 1
255 259 250 257 273 300 312 317 314 321 324 328 329 330 351 305 244 93 340 312 278 266 249 234 167 165 125 128 102 99 116 61 100 63 69 40 267 231 247 127 109 104 68 27 4
229 245 263 252 260 272 299 309 309 313 319 322 330 327 10 264 173 28 316 334 357 268 225 248 323 120 92 62 73 109 95 120 162 111 104 63 300 331 319 145 88 144 165 79 335
221 224 239 258 263 266 280 297 304 304 309 315 325 321 306 238 125 298 180 229 258 269 147 8 27 78 104 95 120 124 95 123 205 191 82 76 278 228 160 129 172 172 158 91 302
225 222 221 236 258 273 284 290 296 297 299 303 313 318 247 318 332 281 305 9 42 57 79 11 73 87 90 146 74 91 66 67 200 147 237 81 269 196 166 142 189 198 147 126 268
264 222 216 216 223 255 275 291 290 293 286 288 330 187 274 56 182 209 352 153 111 38 27 17 64 107 50 103 42 0 202 196 261 194 119 153 269 187 181 154 200 205 162 185 267
328 251 219 209 204 247 290 285 278 301 251 246 265 12 233 220 144 149 341 50 142 114 69 89 73 93 60 94 199 186 192 223 222 224 160 238 254 261 234 177 190 211 178 199 252
332 307 227 203 194 191 9 336 15 291 286 195 194 227 143 13 339 230 206 145 143 130 154 195 102 192 208 177 131 130 165 170 114 146 198 236 267 259 261 187 189 220 183 214 228
343 333 247 209 183 160 135 160 205 283 295 240 201 232 200 171 164 202 160 152 159 183 134 48 220 182 137 144 123 95 121 244 328 155 158 338 277 254 227 204 193 203 187 202 184
332 335 292 199 152 136 185 207 165 276 246 253 187 185 187 148 220 205 160 189 171 180 175 150 185 157 122 139 135 165 167 200 177 176 240 309 298 305 72 175 175 189 165 186 192
308 327 336 153 135 147 216 193 301 10 15 254 220 230 143 159 249 138 195 191 194 186 171 180 147 159 159 184 159 172 175 143 140 81 239 132 281 302 203 176 201 196 181 194 189
305 312 324 158 136 174 197 153 134 66 258 142 143 313 149 171 131 269 205 188 182 141 122 218 158 163 162 187 167 176 129 135 128 124 60 272 87 268 153 229 227 208 191 195 183
273 292 325 219 94 122 310 101 80 90 248 173 130 152 126 216 122 128 151 316 153 89 46 114 228 124 141 78 13 147 91 51 48 81 24 247 137 274 208 207 204 181 183 177 165
272 274 262 175 187 155 165 72 62 201 18 231 191 169 156 165 158 168 166 180 158 109 181 77 190 115 142 85 9 37 99 13 4 10 218 354 83 247 252 213 191 174 174 169 168
275 277 202 207 172 159 98 58 193 221 212 168 130 116 173 149 205 197 139 198 250 149 126 152 253 171 187 190 178 184 181 164 190 190 241 20 232 256 270 206 144 140 150 153 171
277 267 242 163 180 142 136 204 206 191 177 148 80 99 232 180 155 153 194 209 215 186 170 146 108 63 68 34 148 186 207 188 104 40 59 219 280 300 51 90 127 144 152 169 172
210 279 239 161 172 154 201 221 197 192 148 148 161 158 180 202 153 174 179 207 214 190 205 198 103 359 304 116 85 163 203 97 347 131 238 281 264 237 218 208 172 174 175 177 172
163 243 231 160 169 191 212 217 173 217 173 159 145 148 176 190 176 196 211 289 207 193 178 147 113 274 107 210 178 157 211 219 142 154 165 215 258 211 207 198 190 190 179 177 178
189 223 188 168 202 198 205 200 135 178 136 197 138 133 159 171 174 221 212 243 353 156 183 171 115 163 203 237 201 206 198 180 141 211 224 148 271 198 258 206 185 190 182 181 176
197 190 219 214 201 205 212 144 162 149 173 169 178 160 133 149 194 205 206 117 10 178 165 189 246 84 354 348 337 219 194 209 143 79 200 142 255 334 3 142 181 180 186 181 173
150 194 204 245 301 211 197 187 188 99 169 142 154 101 115 153 213 212 216 24 36 41 56 143 165 181 189 193 140 196 195 183 157 142 166 223 236 234 225 189 193 197 184 178 176
211 194 219 201 226 241 208 178 174 176 201 147 209 195 169 163 182 212 145 81 1 5 29 109 211 195 251 184 179 197 182 187 201 213 187 216 214 225 202 197 199 188 165 165 179
180 169 150 256 211 205 230 200 195 173 153 197 205 191 185 173 187 182 135 162 180 80 158 142 238 144 277 321 294 271 205 194 211 226 277 257 266 230 187 130 161 186 178 187 193
174 145 108 289 239 208 228 222 202 190 249 205 198 160 199 207 99 48 129 159 160 152 179 164 143 111 261 349 27 275 193 192 208 216 212 219 226 194 211 191 196 191 191 194 193